Ponca City, OK

3:26 PM CST on December 06, 2019 (GMT -0600)
Ponca City Municipal

Weather History for KPNC - November, 2019

Change the Weather History Date:

Tuesday, November 12, 2019

  Actual Average Record
Temperature  
Mean Temperature 22 °F -  
Max Temperature 32 °F 62 °F 80 °F (1999)
Min Temperature 12 °F 36 °F 12 °F (2019)
Degree Days  
Heating Degree Days 43    
Moisture  
Dew Point 7 °F    
Average Humidity 54    
Maximum Humidity 80    
Minimum Humidity 31    
Precipitation  
Precipitation 0.00 in - - ()
Sea Level Pressure  
Sea Level Pressure 30.58 in    
Wind  
Wind Speed 7 mph (SSE)    
Max Wind Speed 12 mph    
Max Gust Speed 17 mph    
Visibility 10 miles    
Events      
Averages and records for this station are not official NWS values.
T = Trace of Precipitation, MM = Missing Value Source: NWS Daily Summary

Daily Weather History Graph

Daily Weather History Graph

Search for Another Location

Airport or City:

Astronomy

Nov. 12, 2019 Rise Set
Actual Time 7:03 AM CST 5:21 PM CST
Civil Twilight 6:35 AM CST 5:48 PM CST
Nautical Twilight 6:04 AM CST 6:20 PM CST
Astronomical Twilight 5:34 AM CST 6:50 PM CST
Moon 5:48 PM CST (11/12) 6:57 AM CST (11/12)
Length of Visible Light 11h 13m
Length of Day
10h 18m
Full, 100% of the Moon is Illuminated
Nov 12
Full
Nov 19
Last Quarter
Nov 26
New
Dec 4
First Quarter
Dec 11
Full

Hourly Weather History & Observations

Time (CST) Temp. Windchill Dew Point Humidity Pressure Visibility Wind Dir Wind Speed Gust Speed Precip Events Conditions
12:53 AM 17.1 °F 4.3 °F 8.1 °F 68% 30.74 in 10.0 mi North 11.5 mph - N/A   Clear
1:53 AM 17.1 °F 6.6 °F 8.1 °F 68% 30.75 in 10.0 mi North 8.1 mph - N/A   Clear
2:53 AM 15.1 °F 7.7 °F 7.0 °F 70% 30.75 in 10.0 mi NNW 4.6 mph - N/A   Clear
3:53 AM 15.1 °F 4.2 °F 7.0 °F 70% 30.74 in 10.0 mi North 8.1 mph - N/A   Clear
4:53 AM 14.0 °F 5.1 °F 7.0 °F 74% 30.74 in 10.0 mi North 5.8 mph - N/A   Clear
5:53 AM 12.9 °F 6.9 °F 6.1 °F 74% 30.73 in 10.0 mi North 3.5 mph - N/A   Clear
6:53 AM 12.0 °F - 7.0 °F 80% 30.73 in 10.0 mi Calm Calm - N/A   Clear
7:53 AM 14.0 °F 8.2 °F 8.1 °F 77% 30.74 in 10.0 mi NNE 3.5 mph - N/A   Clear
9:53 AM 21.0 °F 14.6 °F 8.1 °F 57% 30.71 in 10.0 mi Variable 4.6 mph - N/A   Clear
10:53 AM 23.0 °F 18.4 °F 6.1 °F 48% 30.69 in 10.0 mi Variable 3.5 mph - N/A   Clear
11:53 AM 27.0 °F 21.6 °F 5.0 °F 39% 30.66 in 10.0 mi SE 4.6 mph - N/A   Clear
12:53 PM 28.0 °F 21.7 °F 5.0 °F 38% 30.61 in 10.0 mi SSW 5.8 mph - N/A   Clear
1:53 PM 30.9 °F 24.3 °F 5.0 °F 33% 30.55 in 10.0 mi SE 6.9 mph - N/A   Clear
2:53 PM 32.0 °F 24.8 °F 3.9 °F 31% 30.50 in 10.0 mi SSW 8.1 mph - N/A   Clear
3:53 PM 32.0 °F 23.6 °F 7.0 °F 35% 30.45 in 10.0 mi SSE 10.4 mph - N/A   Clear
4:53 PM 30.9 °F 23.5 °F 7.0 °F 37% 30.44 in 10.0 mi South 8.1 mph - N/A   Clear
5:53 PM 30.0 °F 24.1 °F 8.1 °F 40% 30.43 in 10.0 mi South 5.8 mph - N/A   Clear
6:53 PM 28.9 °F 21.1 °F 8.1 °F 41% 30.41 in 10.0 mi SSE 8.1 mph - N/A   Clear
7:53 PM 26.1 °F 16.8 °F 10.0 °F 51% 30.42 in 10.0 mi SSE 9.2 mph - N/A   Clear
8:53 PM 26.1 °F 15.6 °F 10.9 °F 53% 30.38 in 10.0 mi SSE 11.5 mph - N/A   Clear
10:53 PM 28.0 °F 18.6 °F 10.9 °F 49% 30.31 in 10.0 mi South 10.4 mph - N/A   Clear
11:53 PM 27.0 °F 17.3 °F 10.9 °F 51% 30.27 in 10.0 mi South 10.4 mph 17.3 mph N/A   Clear